Regional Weather Roundup
Issued by NWS

Home | Current Version | Previous Version | Graphics & Text | Print | Product List | Glossary On
Versions: 1 2 3 4 5 6 7 8 9 10 11 12 13 14 15 16 17 18 19 20 21 22 23 24 25 26 27 28 29 30 31 32 33 34 35 36 37 38 39 40 41 42 43 44 45 46 47 48 49 50
000
ASUS43 KIND 252209
RWRIN

WEATHER ROUNDUP FOR INDIANA
NATIONAL WEATHER SERVICE INDIANAPOLIS IN
600 PM EDT WED APR 25 2018

NOTE: "FAIR" INDICATES FEW OR NO CLOUDS BELOW 12,000 FEET WITH NO
SIGNIFICANT WEATHER AND/OR OBSTRUCTIONS TO VISIBILITY.

* - STATION DOES NOT REPORT WEATHER SUCH AS PRECIPITATION OR FOG.

+ - STATION NOT QUALITY CONTROLLED BY THE NATIONAL WEATHER SERVICE.
    USE DATA WITH CAUTION...ESPECIALLY DEWPOINT AND RELATIVE
    HUMIDITY OBSERVATIONS.

INZ001>003-010>013-019-020-252300-
NORTHWEST INDIANA

CITY           SKY/WX    TMP DP  RH WIND       PRES   REMARKS
GARY /AIRPORT/ MOSUNNY   45  34  65 NE8       30.07S
KNOX *+        FAIR      52  28  40 N16G26    30.02S
LA PORTE +     FAIR      49  32  52 N16G22    30.03S
MICHIGAN CITY+ FAIR      45  32  61 N14G20    30.06R
MONTICELLO +   FAIR      56  28  35 N13       30.00S
RENSSELAER +   FAIR      55  16  21 N16       30.02F
VALPARAISO     FAIR      51  32  48 N15       30.03F

$$

LMZ046-743>745-252300-
SOUTHERN LAKE MICHIGAN

STATION/POSITION TIME  TEMP    WIND        PRES    WAVE
                       AIR SEA DIR/SP/G            HT
                 (UTC) (F)     (DEG/KT/KT) (MB)    (FT)
BURNS HARBOR     2140   40      30/ 10/ 12 1018.6S
MICHIGAN CITY    2140   39      20/ 10/ 11   N/A

$$

INZ004-005-014>016-021>024-252300-
NORTH CENTRAL INDIANA

CITY           SKY/WX    TMP DP  RH WIND       PRES   REMARKS
ELKHART        FAIR      52  28  40 NW14G21   30.00S
GOSHEN         FAIR      53  30  41 N14G23    29.98S
LOGANSPORT +   FAIR      55  30  38 NW14G22   30.00R
PERU/GRISSOM   FAIR      58  31  36 N16       29.97R
ROCHESTER +    FAIR      55  30  38 NW17G23   30.00S
SOUTH BEND     FAIR      49  29  46 N23G29    30.02F
WARSAW +       FAIR      54  32  43 NW14G22   29.99R

$$

INZ006>009-017-018-025>027-252300-
NORTHEAST INDIANA

CITY           SKY/WX    TMP DP  RH WIND       PRES   REMARKS
ANGOLA *+      FAIR      61  36  39 N15       29.92S
AUBURN +       FAIR      61  37  41 W16       29.93S
FORT WAYNE     FAIR      62  35  36 NW14      29.94S
HUNTINGTON +   FAIR      59  31  33 NW12      29.95S
KENDALLVILLE + FAIR      58  29  32 NW12      29.94S

$$

INZ028-029-035-036-043>045-051>053-252300-
WEST CENTRAL INDIANA

CITY           SKY/WX    TMP DP  RH WIND       PRES   REMARKS
CRAWFORDSVL +  FAIR      60  37  42 N12       29.98S
GREENCASTLE +  FAIR      63  37  39 N9        29.97S
LAFAYETTE      FAIR      58  32  37 N12G22    29.99F
TERRE HAUTE    FAIR      66  43  43 N9        29.96S

$$

INZ030>032-037>040-046>048-054>057-064-065-252300-
CENTRAL INDIANA

CITY           SKY/WX    TMP DP  RH WIND       PRES   REMARKS
COLUMBUS       SUNNY     63  45  51 NW6       29.96F
FRANKFORT +    FAIR      62  32  31 N13       30.01R
GREENWOOD *+   FAIR      62  41  45 NW7       29.96S
INDIANAPOLIS   PTSUNNY   64  41  42 NW13      29.95F
-EAGLE CREEK   FAIR      63  40  42 N12       29.95F
KOKOMO +       FAIR      59  32  36 N16G22    29.98R
MARION +       FAIR      60  30  32 NW8G18    29.97R
MT COMFORT *+  FAIR      63  46  55 N13       29.96S
SHELBYVILLE    FAIR      64  45  49 N12       29.94F
ZIONSVILLE +   FAIR      60  39  46 N14       29.97S

$$

INZ033-034-041-042-049-050-058-059-252300-
EAST CENTRAL INDIANA

CITY           SKY/WX    TMP DP  RH WIND       PRES   REMARKS
MUNCIE         FAIR      65  34  31 N15       29.94S
RICHMOND +     FAIR      59  41  51 NW10      29.93F

$$

INZ060-061-067>069-081>083-085>088-252300-
SOUTHWEST INDIANA

CITY           SKY/WX    TMP DP  RH WIND       PRES   REMARKS
EVANSVILLE     FAIR      67  50  54 NW7       29.96S
HUNTINGBURG +  FAIR      66  50  56 NW8       29.95S
WASHINGTON +   FAIR      66  46  48 N3        29.96S

$$

INZ062-063-066-070>080-084-089>092-252300-
SOUTH CENTRAL AND SOUTHEAST INDIANA

CITY           SKY/WX    TMP DP  RH WIND       PRES   REMARKS
BATESVILLE +   MOSUNNY   63  43  48 MISG      29.94S
BEDFORD +      FAIR      66  43  42 N9        29.95S
BLOOMINGTON    FAIR      63  49  60 NE5       29.96F
FRENCH LICK *+ PTSUNNY   64  37  36 CALM      29.95S
MADISON *+     FAIR      64  43  45 N7        29.96S
NORTH VERNON + FAIR      61  48  63 NW12      29.96S
SEYMOUR +      FAIR      66  48  52 N13       29.95S

$$




USA.gov is the U.S. government's official web portal to all federal, state and local government web resources and services.